Weather History for Deering, AK

Change the Weather History Date:

Saturday, May 11, 2013

  Actual Average (PAOT) Record (PAOT)
Temperature  
Mean Temperature 36 °F 30 °F  
Max Temperature 39 °F 36 °F 56 °F (1983)
Min Temperature 32 °F 24 °F -3 °F (1942)
Degree Days  
Heating Degree Days 30 35  
Month to date heating degree days 417  
Since 1 July heating degree days 14197  
Cooling Degree Days 0    
Month to date cooling degree days  
Year to date cooling degree days  
Moisture  
Dew Point 29 °F    
Average Humidity 81    
Maximum Humidity 92    
Minimum Humidity 70    
Precipitation  
Precipitation 0.00 in 0.01 in 0.33 in (1968)
Month to date precipitation 0.17  
Year to date precipitation 2.43  
Snow  
Snow 0.00 in 0.10 in 1.20 in (1992)
Month to date snowfall 0.8  
Since 1 July snowfall 59.4  
Snow Depth -    
Sea Level Pressure  
Sea Level Pressure 30.02 in    
Wind  
Wind Speed 6 mph (WSW)    
Max Wind Speed 12 mph    
Max Gust Speed -    
Visibility 10 miles    
Events      
T = Trace of Precipitation, MM = Missing Value Source: NWS Daily Summary

Daily Weather History Graph

Daily Weather History Graph

Search for Another Location

Airport:

Trip Planner

Search our weather history database for the weather conditions in past years. The results will help you decide how hot, cold, wet, or windy it might be!

Date:

Astronomy

May. 11, 2013 Rise Set
Actual Time 5:25 AM AKDT 12:12 AM AKDT
Civil Twilight 3:19 AM AKDT 2:14 AM AKDT
Nautical Twilight Sun does not rise Sun does not rise
Astronomical Twilight Sun does not rise Sun does not rise
Moon 6:26 AM AKDT (5/11) 1:23 AM AKDT (5/11)
Length of Visible Light 22h 55m
Length of Day
18h 46m
Waxing Crescent, 3% of the Moon is Illuminated
May 11
Waxing Crescent
May 17
First Quarter
May 24
Full
May 31
Last Quarter
Jun 8
New

Hourly Weather History & Observations

Time (AKDT) Temp. Windchill Dew Point Humidity Pressure Visibility Wind Dir Wind Speed Gust Speed Precip Events Conditions
12:53 AM 33.1 °F 27.7 °F 27.0 °F 78% 30.10 in 10.0 mi WNW 5.8 mph - N/A   Overcast
1:53 AM 33.1 °F 28.7 °F 28.9 °F 85% 30.11 in 10.0 mi WNW 4.6 mph - N/A   Overcast
2:53 AM 33.1 °F 30.0 °F 28.9 °F 85% 30.10 in 10.0 mi West 3.5 mph - N/A   Overcast
3:53 AM 33.1 °F 28.7 °F 28.9 °F 85% 30.09 in 10.0 mi WSW 4.6 mph - N/A   Overcast
4:53 AM 32.0 °F 26.4 °F 28.9 °F 88% 30.09 in 10.0 mi WNW 5.8 mph - N/A   Overcast
5:53 AM 32.0 °F 28.7 °F 30.0 °F 92% 30.08 in 10.0 mi West 3.5 mph - N/A   Overcast
6:53 AM 32.0 °F 26.4 °F 30.0 °F 92% 30.08 in 10.0 mi West 5.8 mph - N/A   Overcast
7:53 AM 32.0 °F 28.7 °F 28.9 °F 88% 30.08 in 10.0 mi West 3.5 mph - N/A   Overcast
8:53 AM 33.1 °F 25.5 °F 28.0 °F 82% 30.08 in 10.0 mi West 9.2 mph - N/A   Overcast
9:53 AM 32.0 °F 24.8 °F 28.9 °F 88% 30.07 in 10.0 mi West 8.1 mph - N/A   Overcast
10:40 AM 33.8 °F 27.0 °F 28.4 °F 81% 30.06 in 10.0 mi West 8.1 mph - N/A   Overcast
10:53 AM 33.1 °F 26.9 °F 28.9 °F 85% 30.06 in 10.0 mi West 6.9 mph - N/A   Overcast
11:34 AM 33.8 °F 27.7 °F 28.4 °F 81% 30.05 in 10.0 mi WSW 6.9 mph - N/A   Overcast
11:53 AM 34.0 °F 28.8 °F 28.9 °F 82% 30.06 in 10.0 mi WSW 5.8 mph - N/A   Overcast
12:53 PM 34.0 °F 29.8 °F 28.9 °F 82% 30.05 in 10.0 mi West 4.6 mph - N/A   Overcast
1:06 PM 35.6 °F 30.7 °F 28.4 °F 75% 30.05 in 10.0 mi West 5.8 mph - N/A   Overcast
1:25 PM 35.6 °F 30.7 °F 28.4 °F 75% 30.04 in 10.0 mi West 5.8 mph - N/A   Overcast
1:53 PM 35.1 °F 29.3 °F 28.9 °F 78% 30.04 in 10.0 mi West 6.9 mph - N/A   Overcast
2:53 PM 35.1 °F 32.2 °F 30.0 °F 82% 30.02 in 10.0 mi WSW 3.5 mph - N/A   Overcast
3:53 PM 36.0 °F 33.3 °F 30.0 °F 79% 30.01 in 10.0 mi WSW 3.5 mph - N/A   Overcast
4:53 PM 39.0 °F 36.8 °F 30.9 °F 73% 29.97 in 10.0 mi Variable 3.5 mph - N/A   Mostly Cloudy
5:02 PM 39.2 °F 35.9 °F 30.2 °F 70% 29.97 in 10.0 mi SW 4.6 mph - N/A   Scattered Clouds
5:53 PM 39.0 °F 33.4 °F 30.9 °F 73% 29.96 in 10.0 mi SW 8.1 mph - N/A   Clear
6:53 PM 39.0 °F 34.0 °F 30.9 °F 73% 29.94 in 10.0 mi SSW 6.9 mph - N/A   Clear
7:53 PM 39.0 °F 33.4 °F 30.9 °F 73% 29.91 in 10.0 mi SSW 8.1 mph - N/A   Clear
8:53 PM 37.0 °F 31.0 °F 30.0 °F 76% 29.89 in 10.0 mi South 8.1 mph - N/A   Clear
9:53 PM 36.0 °F 30.3 °F 30.0 °F 79% 29.86 in 10.0 mi South 6.9 mph - N/A   Clear
10:53 PM 34.0 °F 27.2 °F 28.9 °F 82% 29.84 in 10.0 mi South 8.1 mph - N/A   Clear
11:53 PM 33.1 °F 24.4 °F 28.0 °F 82% 29.82 in 10.0 mi SSW 11.5 mph - N/A   Partly Cloudy